Temperature
20 20 20 19 18 19 20 21 22 23 22 22 22 21 20 19 19 18 18 19 19 19 19 19 19 19 19 20 20 20 20 20 20 20 20 20 19 19 19 19 19 19 19 19 19 19 19 19 19
20 20 20 19 18 19 21 21 22 23 23 22 21 20 20 19 19 18 18 18 19 19 19 19 19 19 19 19 19 20 20 20 20 20 20 19 19 19 19 19 19 19 19 19 19 19 19 19 19
20 20 20 18 19 20 21 22 22 24 23 22 20 19 19 19 19 18 18 19 19 19 19 19 19 19 19 19 19 19 19 19 19 19 19 19 19 19 19 19 19 19 19 19 19 19 19 19 19
21 20 20 19 20 20 21 22 22 23 23 22 20 19 18 19 19 19 19 19 19 19 19 19 19 19 19 19 19 19 19 19 19 19 19 19 19 19 19 19 19 19 19 19 19 19 19 19 19
21 21 19 20 20 21 21 22 23 23 22 21 20 18 18 19 19 19 19 19 19 19 18 18 18 18 18 18 18 18 18 18 18 18 18 19 19 19 19 19 19 19 19 19 19 19 19 19 19
22 20 19 20 21 21 22 23 23 22 22 21 20 18 18 19 19 19 19 19 19 18 18 18 18 18 18 18 17 17 17 18 18 18 18 18 18 18 18 18 18 18 18 18 18 19 18 19 19
21 19 20 20 21 21 22 23 23 22 22 21 20 18 18 19 19 19 19 19 19 18 18 18 18 17 17 17 17 17 17 17 17 17 17 17 17 18 18 18 18 18 18 18 18 19 19 19 19
22 19 20 20 21 21 23 23 23 23 22 21 21 19 19 19 19 19 19 19 18 18 18 18 17 17 17 16 16 16 16 16 16 16 17 17 17 17 17 18 18 18 18 18 18 18 19 19 18
22 19 20 20 21 21 23 23 23 22 22 21 21 21 20 20 19 19 19 18 18 18 17 17 17 17 16 16 16 16 16 16 16 16 16 16 16 17 17 17 17 18 18 18 18 18 18 18 18
21 19 20 21 21 21 23 23 22 21 21 20 20 20 20 19 19 19 19 18 18 18 17 17 16 16 16 16 16 16 16 16 16 15 16 16 16 16 16 17 17 17 17 17 18 18 18 18 18
20 19 20 21 22 22 23 23 23 21 20 20 20 20 20 20 19 19 19 18 18 17 17 17 16 16 16 15 15 15 15 15 15 15 15 15 15 16 16 16 16 17 17 17 17 17 18 18 18
19 19 20 20 22 23 23 23 22 22 21 21 21 21 20 20 19 19 19 18 18 17 17 16 16 15 15 15 15 15 15 15 15 15 15 15 15 15 15 16 16 16 16 17 17 17 17 18 18
19 19 20 21 22 23 23 22 22 21 22 21 21 21 20 20 19 19 19 18 18 17 16 16 15 15 15 15 15 15 15 15 15 15 15 15 15 15 15 15 16 16 16 16 16 17 17 17 18
19 19 19 21 21 22 22 21 21 21 21 21 21 21 20 20 19 19 18 18 17 17 16 16 15 15 15 14 14 14 14 14 14 15 15 15 15 15 15 15 15 15 16 16 16 16 17 17 17
19 19 19 20 20 21 22 21 21 21 21 21 21 21 20 20 19 19 18 18 17 17 16 15 15 15 14 14 14 14 14 14 14 14 14 14 15 15 15 15 15 15 15 16 16 16 16 16 17
19 19 19 20 20 21 21 20 21 22 22 21 21 21 20 20 19 19 18 18 17 16 16 15 15 14 14 14 14 14 14 14 14 14 14 14 14 14 15 15 15 15 15 15 15 16 16 16 16
19 19 19 20 20 20 20 20 20 21 22 21 21 21 20 19 19 18 18 17 17 16 16 15 15 14 14 14 14 14 14 14 14 14 14 14 14 14 14 14 14 15 15 15 15 15 16 16 16
19 19 20 20 21 20 20 20 20 21 21 21 21 20 20 19 19 18 18 17 17 16 16 15 14 14 14 14 14 13 13 13 13 13 13 13 14 14 14 14 14 14 14 15 15 15 15 15 16
21 20 20 21 22 21 20 20 19 20 21 21 20 20 20 19 18 18 17 17 16 16 15 15 14 14 14 13 13 13 13 13 13 13 13 13 13 13 14 14 14 14 14 14 14 15 15 15 15
21 21 21 22 23 22 21 21 20 20 20 21 21 20 20 19 18 18 17 17 16 16 15 15 14 14 13 13 13 13 13 13 13 13 13 13 13 13 13 13 13 14 14 14 14 14 15 15 15
21 21 22 22 23 22 22 20 20 20 21 21 21 21 20 19 18 18 17 17 16 16 15 15 14 14 13 13 13 13 13 13 13 13 13 12 12 13 13 13 13 13 13 13 14 14 14 14 14
21 22 23 23 20 19 21 19 19 19 19 19 20 20 20 19 19 18 18 17 16 16 15 15 14 13 13 13 13 13 13 12 12 12 12 12 12 12 12 13 13 13 13 13 13 13 13 14 14
22 23 23 22 21 19 19 19 18 19 19 19 19 20 20 19 19 18 18 17 17 16 15 15 14 14 13 13 13 13 13 12 12 12 12 12 12 12 12 12 12 13 13 13 13 13 13 13 14
23 21 20 17 17 18 19 18 19 17 18 19 19 20 20 19 19 18 18 17 17 16 15 15 14 14 13 13 13 13 13 12 12 12 12 12 12 12 12 12 12 12 12 12 13 13 13 13 13
21 18 18 18 17 17 19 19 18 19 19 19 19 20 20 20 19 18 18 17 17 16 16 15 15 14 14 13 13 13 13 13 12 12 12 12 12 12 12 12 12 12 12 12 12 12 13 13 13
21 18 18 19 18 18 20 19 19 20 20 21 21 21 20 20 19 19 18 18 17 16 16 15 15 14 14 14 13 13 13 13 12 12 12 12 12 12 12 12 12 12 12 12 12 12 12 12 12
21 19 18 17 18 18 18 19 20 20 19 19 20 20 20 20 19 19 18 18 17 17 16 16 15 15 14 14 14 13 13 13 12 12 12 12 12 12 12 12 11 12 12 12 12 12 12 12 12
21 19 16 18 18 18 19 19 17 19 19 19 18 19 20 20 19 19 18 18 17 17 16 16 15 15 15 14 14 13 13 13 13 12 12 12 12 12 12 11 11 11 11 11 11 12 12 12 12
22 21 17 15 16 17 18 18 18 18 18 18 18 20 20 20 20 19 19 18 17 17 16 16 16 15 15 14 14 14 13 13 13 12 12 12 12 12 11 11 11 11 11 11 11 11 11 11 12
21 21 17 18 18 16 16 17 19 18 19 19 20 21 21 20 20 19 19 18 17 17 17 16 16 16 15 15 14 14 13 13 13 12 12 12 12 11 11 11 11 11 11 11 11 11 11 11 11
Wind_Speed
11 8 4 2 2 2 1 3 1 2 4 5 10 10 8 6 5 5 1 4 9 8 10 11 11 9 8 7 6 6 5 5 5 4 4 3 3 3 3 2 2 1 1 2 2 2 2 2 3
8 5 3 2 2 1 2 3 2 3 8 8 9 9 8 7 5 4 2 5 8 8 9 9 10 9 7 6 6 5 5 5 5 5 4 4 4 4 3 3 3 2 2 2 2 2 1 1 1
7 4 2 2 1 3 3 3 2 6 6 5 6 6 5 3 3 2 3 6 7 6 7 8 8 7 6 5 4 4 4 4 5 5 5 5 5 5 5 5 4 4 3 3 3 2 2 1 1
5 2 2 2 2 3 4 4 3 5 6 7 7 6 4 3 2 3 5 7 7 5 6 6 7 6 5 4 3 3 3 4 4 5 6 6 6 7 6 6 6 5 5 5 4 4 3 3 2
2 3 3 2 2 3 2 2 4 5 4 5 7 6 3 1 5 5 6 6 6 5 4 5 5 4 4 3 3 3 3 3 4 5 6 6 7 7 7 7 7 7 7 6 6 5 5 4 4
2 3 3 2 3 1 1 2 6 9 7 7 7 6 2 2 4 4 6 5 5 5 3 3 3 3 3 4 4 4 4 4 5 5 6 6 7 7 8 8 8 8 8 8 7 7 7 6 5
3 3 2 3 2 1 2 3 5 7 6 5 6 6 3 3 4 5 5 5 4 4 3 2 1 1 2 3 4 5 5 5 6 6 7 7 7 7 8 9 9 9 9 9 9 8 8 7 7
4 4 2 1 3 2 2 3 4 7 6 4 5 7 5 5 5 5 4 3 3 2 2 2 1 1 3 4 5 5 6 6 7 8 8 9 8 8 8 8 9 10 10 10 10 10 9 9 8
4 4 1 3 5 4 5 5 3 5 7 4 4 5 6 8 7 6 4 2 3 3 2 2 1 1 3 3 4 5 6 6 7 7 8 8 6 6 7 7 7 8 10 10 11 10 10 9 9
4 2 3 4 4 4 4 6 7 5 7 5 5 5 7 8 7 6 6 4 3 3 2 3 3 3 4 3 3 4 5 6 6 6 7 6 6 7 7 7 8 7 7 9 9 10 9 8 7
4 2 3 6 4 2 3 4 4 10 5 7 9 9 8 8 7 7 6 5 4 3 4 3 3 3 4 3 4 4 5 5 5 6 6 6 6 6 6 5 6 6 6 5 6 6 5 5 5
4 1 1 5 4 2 3 4 5 6 8 10 11 10 9 9 8 8 7 6 5 5 4 3 3 3 4 4 3 3 3 3 3 4 4 2 2 3 3 3 4 4 4 3 3 3 3 3 4
4 2 2 5 5 2 3 5 6 5 9 11 11 10 10 9 8 7 7 7 6 5 3 3 4 4 3 4 3 4 3 3 3 4 4 2 1 2 2 2 3 4 4 3 3 3 3 3 3
6 5 3 4 4 0 4 4 6 7 10 11 10 10 10 9 9 7 7 7 6 5 3 3 4 3 4 4 4 3 4 4 5 4 5 4 2 2 2 3 2 2 3 4 3 4 4 4 3
4 3 1 3 3 2 3 2 7 10 11 11 10 9 9 8 9 9 8 8 7 5 3 3 3 5 5 5 5 4 4 4 4 5 7 7 5 3 2 2 2 3 3 4 3 3 3 3 3
2 2 1 3 3 3 4 6 7 10 11 10 9 8 8 8 8 9 9 8 7 5 3 4 4 5 4 5 5 3 4 4 4 5 7 7 7 6 3 2 2 3 2 1 2 3 3 3 3
1 2 4 4 6 4 5 7 6 9 10 9 9 8 8 8 8 7 8 8 7 5 5 4 4 3 4 5 4 4 4 4 4 5 5 7 8 8 4 3 3 3 1 1 2 1 2 2 3
4 3 3 5 6 7 7 7 6 9 9 9 8 8 8 9 9 8 7 7 6 5 6 5 4 3 4 4 4 4 5 4 4 4 4 6 7 8 5 3 4 3 2 2 2 1 1 2 2
8 5 4 5 6 8 9 8 10 11 9 8 7 8 9 9 7 7 7 7 6 6 6 5 4 3 3 3 3 3 4 4 4 3 5 6 7 7 4 4 4 4 3 2 2 1 1 1 0
5 4 2 2 5 7 7 7 9 11 11 10 10 10 10 9 8 7 7 6 6 6 6 5 4 3 2 1 0 0 1 2 2 3 5 6 6 5 4 4 4 4 3 4 3 2 1 1 1
3 6 6 5 1 1 2 4 3 6 6 6 7 10 11 13 12 9 8 7 7 6 6 5 4 3 1 1 2 3 3 4 4 5 5 5 6 4 4 3 3 4 3 3 3 2 1 1 1
5 6 6 5 3 3 2 2 5 6 6 7 8 9 11 11 10 9 9 8 8 6 6 6 4 3 1 1 2 2 1 2 3 3 3 5 5 5 4 3 3 3 3 3 3 2 1 0 1
8 5 3 2 3 2 1 4 6 4 7 8 8 9 11 11 12 11 10 9 8 7 6 5 4 3 1 1 1 1 0 1 2 3 4 5 5 5 4 3 3 3 3 3 3 3 2 0 1
5 5 7 6 5 2 5 6 5 6 10 9 8 9 10 11 10 10 8 8 7 6 5 5 4 3 2 1 1 2 1 1 2 3 4 4 4 4 5 4 4 4 3 3 3 3 2 2 1
6 6 5 4 4 6 3 5 8 7 7 10 10 10 10 11 10 10 9 9 8 7 6 5 5 4 4 3 2 2 2 2 1 1 2 3 3 3 5 4 4 4 4 4 3 2 3 2 2
4 9 7 4 4 5 2 3 5 3 5 7 9 10 10 10 10 11 10 9 8 9 7 6 6 5 4 4 3 2 3 2 2 2 2 2 2 3 4 5 5 4 4 4 3 2 3 2 3
6 4 8 6 2 2 4 2 4 1 3 5 7 9 10 11 11 11 10 9 9 9 8 8 7 5 5 5 4 3 3 3 3 2 2 2 3 3 4 4 4 5 4 4 3 2 3 3 3
6 8 6 4 2 2 3 3 6 8 9 7 8 10 10 10 10 10 9 9 8 8 7 7 6 6 5 5 4 2 3 3 2 1 2 3 3 3 4 4 4 4 4 4 3 3 3 4 4
3 3 5 4 5 5 3 6 7 12 11 10 11 10 10 10 10 10 9 9 8 7 6 6 6 5 4 4 3 2 2 2 1 1 2 2 2 3 3 4 4 4 4 4 4 4 4 4 5
6 6 7 4 3 4 3 7 6 10 10 10 10 10 9 10 10 9 9 8 7 7 6 6 6 5 5 5 4 4 3 2 1 1 2 1 1 2 3 3 3 4 4 4 4 4 5 5 5
Wind_Direction
181 148 106 86 51 28 328 293 300 39 60 62 73 79 80 58 72 111 245 119 135 147 154 149 145 144 145 147 149 149 150 152 155 158 161 161 161 156 154 150 145 140 132 123 108 97 80 76 67
152 133 114 71 86 90 293 283 21 88 135 121 76 70 71 69 69 92 84 127 136 143 147 149 149 148 152 159 164 167 172 175 180 186 188 188 190 191 195 195 193 195 191 174 155 147 128 106 73
141 145 127 106 135 175 208 238 95 83 107 97 79 55 64 65 64 91 144 139 129 127 134 145 145 147 151 159 169 176 183 191 197 199 203 204 207 210 211 212 211 210 210 202 192 191 192 198 219
148 122 83 103 144 220 202 212 137 107 78 66 100 76 60 46 101 124 132 131 126 122 128 139 144 149 155 162 170 182 197 209 214 211 212 214 214 216 217 217 215 217 221 217 205 206 215 223 233
111 109 89 111 206 246 232 174 119 102 86 83 95 93 80 44 117 121 127 132 134 136 138 144 147 154 165 178 192 205 222 235 235 231 227 226 223 222 222 222 220 220 223 223 216 212 220 226 231
101 93 99 168 224 254 282 130 94 94 108 114 102 107 130 185 146 152 146 142 138 138 141 142 157 172 193 209 219 231 242 250 250 250 244 238 235 233 230 227 226 225 225 226 222 218 221 228 233
139 105 136 174 178 157 171 107 104 105 101 105 118 113 158 212 190 166 146 142 143 140 135 138 184 240 249 253 252 250 253 260 263 266 265 258 248 241 238 235 232 231 229 228 225 222 222 226 233
135 100 102 180 164 196 196 117 121 114 103 99 109 134 174 208 181 142 129 126 130 131 131 158 184 299 297 293 290 278 268 265 270 268 265 263 262 258 251 243 239 236 233 231 229 225 225 226 232
93 80 176 213 184 198 184 129 85 70 90 68 82 141 165 157 139 120 107 82 87 93 93 97 74 5 327 309 319 313 302 285 279 275 270 266 265 265 263 257 249 243 237 234 231 228 226 228 233
78 106 259 249 203 194 177 142 136 100 93 93 99 109 123 132 134 129 122 112 103 94 77 73 63 34 23 8 344 318 310 300 290 281 276 267 252 248 250 258 257 255 249 242 235 231 229 229 228
88 125 301 302 273 218 166 138 129 131 139 168 158 151 142 138 135 131 132 131 130 109 79 67 57 40 30 4 344 333 327 313 301 291 279 268 256 250 248 250 258 258 252 246 244 236 225 215 218
101 78 294 290 298 251 170 128 105 150 174 171 162 154 148 139 137 141 137 132 117 98 84 56 50 36 20 16 353 347 339 329 313 300 300 284 266 256 248 243 242 240 235 226 238 244 231 218 223
125 158 273 274 295 299 109 121 130 153 155 155 155 150 152 147 142 138 131 122 112 101 81 56 54 48 34 22 351 360 339 336 339 343 340 323 280 275 262 259 249 242 233 222 222 224 231 228 223
163 167 221 287 295 326 132 147 131 179 165 159 160 162 162 155 149 134 124 118 116 110 94 77 67 55 42 19 354 340 343 354 10 16 8 8 355 321 300 279 260 253 246 234 223 221 226 229 223
115 135 212 278 266 228 130 208 202 180 171 170 172 172 165 155 144 142 143 138 134 126 100 96 95 58 43 18 360 359 355 7 13 10 12 15 14 5 339 320 294 270 260 245 234 230 223 231 231
126 118 200 244 221 207 139 235 236 177 173 180 182 176 165 155 150 149 146 140 135 123 94 62 71 61 42 25 6 358 5 13 12 14 15 14 12 11 5 358 326 310 297 266 240 232 230 231 235
103 179 219 235 210 199 188 233 227 186 178 185 186 181 162 153 151 153 149 142 134 121 100 85 82 63 42 25 12 5 9 11 7 15 14 9 10 12 19 4 340 347 345 325 293 255 235 232 241
193 213 221 226 207 195 220 234 208 202 190 191 187 175 162 162 165 160 148 140 128 109 100 99 82 53 42 24 15 11 10 2 1 2 1 5 6 9 15 10 0 4 8 352 324 285 258 237 242
169 180 223 236 195 187 222 229 207 202 196 190 184 172 168 167 160 150 145 136 118 101 97 92 86 56 47 33 20 10 355 346 351 349 357 2 4 5 12 13 4 9 7 345 335 309 298 286 234
159 163 206 255 203 190 221 236 206 194 198 190 181 172 164 151 149 152 144 133 123 117 107 101 101 89 62 48 359 306 324 321 327 339 350 358 2 1 13 15 2 360 2 2 3 7 351 318 89
165 173 187 208 254 281 181 335 210 205 198 189 179 165 158 160 161 161 149 142 137 133 131 126 128 118 91 56 35 20 13 358 355 350 345 342 355 1 5 7 7 3 11 358 352 360 55 300 281
192 207 186 175 119 279 170 225 260 203 189 188 178 160 162 162 160 161 156 154 155 158 150 141 142 140 139 94 69 59 38 346 308 309 321 335 351 353 359 8 8 8 6 354 340 8 10 115 283
195 202 171 131 124 339 318 155 276 174 193 206 194 174 168 168 166 166 166 165 166 165 158 155 151 162 186 137 114 104 20 299 305 327 347 346 340 344 348 352 357 357 347 336 337 344 342 278 220
146 68 43 49 68 318 232 160 238 208 203 197 196 185 172 170 167 166 166 158 161 163 162 162 160 189 217 200 146 161 184 298 347 346 348 341 334 335 337 338 342 335 329 322 324 324 323 303 274
84 82 33 1 5 261 237 164 233 229 196 179 181 184 178 171 165 166 165 166 170 172 178 179 177 203 223 223 213 199 199 197 218 279 312 327 330 322 318 330 328 325 319 316 324 333 324 311 301
160 132 152 193 225 281 337 209 255 256 173 159 166 172 174 176 175 176 178 178 179 182 184 186 193 212 222 223 234 219 201 197 228 243 250 279 284 286 301 323 329 330 331 338 346 349 329 325 309
133 149 169 144 207 262 301 344 339 359 154 161 170 174 184 186 185 184 184 183 182 186 193 196 199 211 219 221 227 224 209 210 234 257 260 275 291 302 323 333 336 338 347 356 360 343 331 333 318
143 143 98 119 163 282 301 224 222 215 213 205 195 194 199 194 189 185 185 186 188 193 200 201 200 205 215 215 220 207 214 220 227 234 269 286 304 319 330 336 337 341 349 354 354 336 331 341 327
167 144 113 122 156 162 230 256 222 198 201 202 207 205 198 192 190 189 189 190 189 192 197 201 206 210 215 215 213 201 214 224 216 219 256 273 303 322 333 333 339 344 347 349 356 346 347 344 331
177 180 147 154 217 172 190 262 267 189 193 191 202 206 200 193 190 188 186 185 188 194 198 201 201 204 214 209 197 202 209 208 206 230 258 272 321 332 339 345 351 347 346 347 352 344 344 336 326
Height
1533 1534 1534 1535 1537 1542 1541 1533 1526 1523 1523 1524 1523 1524 1528 1532 1536 1543 1539 1536 1537 1538 1539 1539 1540 1540 1540 1540 1539 1539 1539 1539 1539 1539 1539 1539 1539 1539 1538 1538 1538 1538 1538 1538 1538 1538 1538 1538 1538
1532 1533 1535 1535 1541 1550 1544 1531 1527 1522 1524 1524 1525 1527 1530 1534 1536 1537 1537 1537 1537 1538 1539 1539 1539 1539 1539 1539 1538 1538 1538 1538 1537 1537 1537 1537 1537 1537 1537 1537 1537 1537 1537 1537 1537 1537 1537 1537 1537
1531 1533 1534 1536 1541 1546 1540 1529 1526 1523 1523 1523 1527 1530 1533 1536 1537 1537 1537 1538 1538 1538 1539 1539 1539 1539 1538 1538 1537 1537 1536 1536 1536 1536 1536 1535 1535 1535 1535 1535 1535 1535 1535 1535 1535 1536 1536 1536 1536
1531 1533 1534 1538 1541 1535 1530 1526 1524 1524 1525 1525 1528 1533 1536 1538 1537 1538 1538 1538 1538 1539 1539 1538 1538 1538 1537 1536 1536 1535 1535 1534 1534 1534 1534 1534 1534 1534 1534 1534 1534 1534 1534 1534 1534 1534 1534 1535 1535
1532 1531 1536 1541 1538 1531 1527 1525 1524 1524 1526 1529 1529 1534 1537 1538 1538 1538 1538 1539 1539 1539 1538 1538 1537 1537 1536 1535 1534 1534 1533 1533 1532 1532 1532 1531 1531 1531 1531 1532 1532 1532 1532 1532 1532 1532 1533 1533 1534
1530 1529 1540 1544 1538 1530 1527 1526 1525 1526 1529 1531 1531 1535 1538 1539 1539 1539 1539 1539 1539 1539 1538 1537 1537 1536 1535 1534 1533 1532 1531 1531 1530 1529 1529 1529 1529 1529 1529 1529 1529 1529 1530 1530 1530 1531 1531 1531 1532
1529 1530 1537 1538 1536 1533 1528 1526 1526 1527 1529 1531 1532 1535 1538 1539 1539 1539 1539 1539 1539 1538 1537 1537 1536 1534 1533 1532 1531 1530 1529 1528 1527 1527 1527 1526 1526 1526 1526 1527 1527 1527 1527 1527 1528 1528 1529 1529 1530
1527 1531 1535 1536 1535 1533 1527 1526 1527 1527 1530 1532 1532 1534 1537 1538 1539 1539 1539 1539 1538 1538 1537 1536 1535 1533 1532 1531 1529 1528 1527 1526 1525 1524 1524 1524 1523 1523 1524 1524 1524 1524 1525 1525 1526 1526 1527 1528 1528
1527 1535 1539 1535 1533 1529 1525 1526 1528 1529 1530 1531 1532 1533 1535 1537 1538 1538 1538 1538 1538 1537 1536 1535 1533 1532 1530 1529 1528 1526 1525 1524 1523 1522 1521 1521 1520 1520 1520 1521 1521 1522 1522 1523 1523 1524 1525 1526 1526
1527 1537 1535 1528 1526 1525 1524 1525 1527 1531 1531 1533 1534 1535 1535 1536 1537 1537 1538 1537 1537 1536 1535 1533 1532 1530 1529 1527 1526 1525 1523 1522 1521 1520 1519 1518 1517 1517 1517 1518 1518 1519 1519 1520 1521 1521 1522 1523 1524
1528 1533 1530 1527 1524 1525 1524 1525 1527 1529 1532 1532 1533 1534 1535 1536 1536 1537 1537 1536 1536 1535 1533 1532 1530 1528 1527 1525 1524 1522 1521 1520 1519 1518 1517 1516 1515 1514 1514 1515 1515 1515 1516 1517 1518 1519 1520 1521 1522
1528 1530 1529 1526 1524 1525 1524 1525 1527 1527 1528 1530 1531 1532 1533 1534 1535 1535 1535 1535 1534 1533 1532 1530 1528 1527 1525 1523 1522 1520 1519 1518 1516 1515 1514 1513 1513 1512 1511 1512 1511 1512 1513 1514 1515 1516 1517 1519 1520
1527 1530 1528 1524 1524 1525 1524 1524 1525 1527 1528 1529 1530 1531 1532 1533 1534 1534 1534 1534 1533 1532 1530 1529 1527 1525 1523 1522 1520 1518 1517 1516 1514 1513 1512 1511 1510 1510 1509 1509 1509 1509 1510 1511 1512 1513 1514 1516 1517
1525 1527 1527 1526 1525 1525 1524 1525 1525 1527 1527 1528 1529 1530 1531 1531 1532 1533 1533 1532 1531 1530 1529 1527 1526 1524 1522 1520 1518 1516 1515 1514 1512 1511 1510 1509 1508 1507 1507 1506 1506 1506 1507 1508 1509 1510 1511 1513 1514
1525 1528 1527 1525 1525 1524 1524 1527 1523 1523 1526 1527 1528 1528 1529 1530 1531 1531 1531 1531 1530 1529 1528 1526 1525 1523 1521 1519 1517 1515 1514 1512 1511 1509 1508 1507 1506 1505 1505 1504 1504 1504 1505 1505 1506 1507 1508 1509 1511
1526 1530 1533 1526 1523 1522 1526 1531 1521 1522 1524 1525 1526 1527 1528 1529 1530 1530 1530 1530 1529 1528 1526 1525 1524 1522 1520 1518 1516 1514 1513 1511 1509 1508 1507 1505 1504 1504 1503 1502 1502 1502 1503 1503 1504 1504 1505 1506 1507
1529 1533 1532 1527 1521 1521 1524 1526 1519 1521 1522 1523 1524 1525 1526 1528 1529 1529 1529 1529 1528 1527 1525 1524 1523 1521 1519 1517 1515 1514 1512 1510 1509 1507 1505 1504 1503 1502 1501 1500 1500 1500 1500 1501 1501 1502 1502 1503 1504
1532 1531 1528 1526 1518 1520 1522 1521 1518 1519 1520 1521 1522 1523 1525 1526 1527 1528 1528 1528 1527 1526 1524 1523 1522 1520 1519 1517 1515 1513 1511 1510 1508 1506 1505 1503 1502 1501 1500 1499 1499 1498 1498 1498 1499 1499 1500 1501 1502
1518 1522 1525 1519 1512 1517 1519 1518 1516 1517 1519 1519 1520 1521 1523 1524 1527 1527 1527 1527 1526 1525 1524 1522 1521 1519 1518 1516 1514 1512 1511 1509 1508 1506 1504 1503 1502 1500 1499 1498 1497 1497 1497 1496 1496 1497 1497 1498 1499
1514 1520 1521 1515 1509 1514 1517 1516 1512 1514 1515 1516 1517 1519 1520 1523 1525 1526 1526 1526 1525 1524 1523 1522 1520 1519 1517 1515 1514 1512 1511 1509 1508 1506 1504 1503 1501 1500 1498 1497 1496 1495 1495 1495 1495 1495 1495 1496 1497
1515 1517 1517 1516 1511 1511 1515 1521 1516 1513 1514 1516 1516 1516 1518 1520 1522 1523 1524 1524 1524 1523 1522 1521 1520 1518 1517 1515 1514 1512 1511 1509 1508 1506 1504 1503 1501 1499 1498 1497 1495 1494 1494 1493 1493 1493 1493 1494 1495
1516 1507 1508 1511 1520 1526 1519 1536 1521 1515 1515 1515 1515 1515 1516 1518 1520 1521 1522 1523 1523 1522 1522 1521 1519 1518 1517 1515 1514 1512 1511 1509 1508 1506 1504 1503 1501 1499 1498 1496 1495 1494 1493 1492 1492 1492 1492 1492 1493
1507 1502 1505 1509 1518 1526 1524 1533 1528 1516 1518 1514 1513 1513 1514 1516 1518 1519 1520 1521 1521 1521 1521 1520 1519 1518 1517 1515 1514 1512 1511 1509 1508 1506 1504 1502 1501 1499 1497 1496 1494 1493 1492 1491 1491 1491 1491 1491 1491
1500 1506 1512 1521 1528 1538 1524 1531 1528 1519 1512 1510 1510 1511 1513 1515 1516 1518 1519 1520 1520 1520 1520 1519 1519 1518 1517 1515 1514 1512 1511 1509 1508 1506 1504 1502 1500 1499 1497 1495 1494 1493 1491 1490 1490 1489 1489 1489 1489
1505 1522 1539 1539 1548 1540 1521 1524 1522 1506 1503 1504 1506 1509 1511 1513 1515 1516 1517 1518 1519 1519 1519 1519 1518 1517 1516 1515 1514 1512 1511 1509 1508 1506 1504 1502 1500 1498 1497 1495 1493 1492 1490 1489 1488 1488 1487 1487 1487
1507 1519 1540 1546 1546 1537 1519 1523 1514 1502 1501 1502 1504 1507 1509 1511 1513 1514 1515 1516 1517 1518 1518 1518 1517 1516 1515 1515 1513 1512 1510 1509 1507 1506 1504 1502 1500 1498 1496 1494 1493 1491 1490 1488 1487 1486 1486 1485 1485
1507 1515 1518 1532 1533 1537 1530 1520 1510 1504 1504 1504 1505 1506 1507 1509 1510 1512 1513 1515 1516 1516 1517 1517 1516 1515 1515 1514 1512 1511 1510 1508 1507 1505 1503 1501 1500 1498 1496 1494 1492 1490 1489 1487 1486 1485 1484 1483 1483
1501 1508 1522 1530 1539 1542 1531 1526 1523 1510 1507 1504 1504 1505 1505 1507 1508 1510 1511 1513 1514 1515 1515 1515 1515 1514 1514 1513 1511 1510 1509 1508 1506 1504 1503 1501 1499 1497 1495 1493 1491 1489 1488 1486 1485 1483 1482 1481 1480
1503 1506 1518 1531 1534 1542 1539 1529 1502 1501 1500 1501 1501 1502 1503 1504 1506 1508 1509 1511 1512 1513 1514 1514 1514 1513 1512 1511 1510 1509 1508 1506 1505 1503 1501 1500 1498 1496 1494 1492 1490 1488 1487 1485 1483 1482 1480 1479 1478
1498 1503 1514 1528 1529 1533 1538 1525 1492 1493 1494 1496 1497 1499 1500 1502 1504 1506 1507 1509 1510 1511 1512 1512 1512 1512 1511 1510 1509 1508 1507 1505 1504 1502 1500 1498 1496 1494 1492 1491 1489 1487 1485 1483 1481 1480 1478 1477 1476